Location: Unspecified
(0.0000°N, 0.0000°E)
Time: 21:57:12
(UTC+00:00)

PAYLOAD G - Pass Details

Date: 13 August 2024
Orbit: 808 x 820 km, 98.7° (Epoch: 12 September)

Event Time Altitude Azimuth Distance (km) Brightness Sun altitude
Rises 18:24:16 0° 183° (S) 3,325 ? -4.7°
Reaches altitude 10° 18:26:45 10° 191° (SSW) 2,393 ? -5.3°
Maximum altitude 18:31:34 36° 257° (WSW) 1,250 ? -6.5°
Drops below altitude 10° 18:36:24 10° 323° (NW) 2,390 ? -7.7°
Sets 18:38:54 0° 332° (NNW) 3,321 ? -8.3°
